Regional Weather Roundup
Issued by NWS

Home | Current Version | Previous Version | Graphics & Text | Print | Product List | Glossary Off
Versions: 1 2 3 4 5 6 7 8 9 10 11 12 13 14 15 16 17 18 19 20 21 22 23 24 25 26 27 28 29 30 31 32 33 34 35 36 37 38 39 40 41 42 43 44 45 46 47 48 49 50

000
ASUS43 KDMX 152007
RWRIA

WEATHER ROUNDUP FOR IOWA
NATIONAL WEATHER SERVICE DES MOINES IA
300 PM CDT MON SEP 15 2014

NOTE: "FAIR" INDICATES FEW OR NO CLOUDS BELOW 12,000 FEET WITH NO
SIGNIFICANT WEATHER AND/OR OBSTRUCTIONS TO VISIBILITY.

* - THESE STATIONS ARE NOT NWS STATIONS...THUS NOT UNDER NWS
QUALITY CONTROL.  THEY ALSO DO NOT REPORT WEATHER SUCH
AS PRECIPITATION OR FOG.

IAZ001>003-012>014-020>022-031>034-043>046-152100-
   NORTHWEST IOWA

CITY           SKY/WX    TMP DP  RH WIND       PRES   REMARKS
CARROLL *      CLOUDY    57  46  67 NE14      30.23S
CHEROKEE *     PTSUNNY   59  43  55 N8G16     30.24F
DENISON *      CLOUDY    57  46  67 N12       30.23R
LE MARS *      PTSUNNY   63  43  48 N10       30.26S
ORANGE CITY *  CLOUDY    63  37  39 N9        30.25F
SHELDON *      PTSUNNY   61  41  48 N12       30.24S
SIOUX CITY     PTSUNNY   62  43  49 NE13G20   30.26S
SPENCER        CLOUDY    61  41  47 N9        30.24F
STORM LAKE *   PTSUNNY   59  50  72 NE8       30.24F
$$

IAZ055>058-069>071-079>083-090>094-152100-
   SOUTHWEST IOWA

CITY           SKY/WX    TMP DP  RH WIND       PRES   REMARKS
ATLANTIC *     CLOUDY    59  48  67 N17G23    30.22R
AUDUBON *      PTSUNNY   63  52  67 N16       30.24S
CLARINDA *     PTSUNNY   64  50  59 N20       30.21S
COUNCIL BLFS * PTSUNNY   61  50  67 N8G21     30.22S
CRESTON *      CLOUDY    59  50  72 N16       30.19S
HARLAN  *      CLOUDY    59  46  63 N15G22    30.27S
LAMONI         CLOUDY    60  53  77 N18G25    30.17R
SHENANDOAH *   CLOUDY    64  52  63 N12G20    30.22R
$$

IAZ047>049-059>061-072>074-084-152100-
   CENTRAL IOWA

CITY           SKY/WX    TMP DP  RH WIND       PRES   REMARKS
AMES           CLOUDY    60  48  64 N15       30.20R
ANKENY *       CLOUDY    61  50  67 N12G21    30.18S
CHARITON *     CLOUDY    57  52  82 N13G22    30.17R
DES MOINES     PTSUNNY   64  51  62 N12       30.18S
GRINNELL*      CLOUDY    59  50  72 N7        30.17S
KNOXVILLE *    CLOUDY    57  50  77 N15G22    30.15S
MARSHALLTOWN   CLOUDY    58  48  69 N15       30.18R
PELLA *        CLOUDY    59  52  77 N8G16     30.18R
PERRY *        CLOUDY    59  48  67 N9G18     30.21S
$$

IAZ004>006-015-016-023>025-035-036-152100-
   NORTH CENTRAL IOWA

CITY           SKY/WX    TMP DP  RH WIND       PRES   REMARKS
ALGONA *       CLOUDY    59  45  58 N10       30.23S
CLARION *        N/A     57  45  62 N8G18     30.21F
ESTHERVILLE    PTSUNNY   61  40  45 N13       30.23S
FORT DODGE *   CLOUDY    57  45  62 N5        30.23S
MASON CITY     CLOUDY    57  45  64 N9        30.22S
FOREST CITY *  MOSUNNY   61  46  59 N9        30.21F
IOWA FALLS *   CLOUDY    59  46  63 N9        30.21S
$$

IAZ007>011-017>019-026>030-037>042-050>054-066-152100-
   NORTHEAST IOWA

CITY           SKY/WX    TMP DP  RH WIND       PRES   REMARKS
CEDAR RAPIDS   CLOUDY    56  51  84 N16G24    30.14R
CHARLES CITY * CLOUDY    59  45  58 N13       30.19F
CLINTON *      CLOUDY    55  50  82 N18G26    30.13R
DECORAH *      MOSUNNY   57  43  58 N9        30.17S
DUBUQUE        CLOUDY    51  50  96 NE12      30.14R
MONTICELLO *   CLOUDY    54  50  87 N7G14     30.15R
OELWEIN *      PTSUNNY   57  48  72 N12       30.18S
WATERLOO       PTSUNNY   59  49  69 N12       30.17S
$$

IAZ064-065-067-068-078-152100-
   EAST CENTRAL IOWA

CITY           SKY/WX    TMP DP  RH WIND       PRES   REMARKS
DAVENPORT      CLOUDY    60  51  72 N18G29    30.09R
IOWA CITY      PTSUNNY   62  53  72 N17       30.12R
MT. PLEASANT * CLOUDY    68  55  64 N5G17     30.08F
MUSCATINE *    PTSUNNY   64  55  72 N16G25    30.09R
QUAD CITIES    PTSUNNY   68  55  63 NE6       30.06F
$$

IAZ062-063-075>077-085>089-095>099-152100-
   SOUTHEAST IOWA

CITY           SKY/WX    TMP DP  RH WIND       PRES   REMARKS
BURLINGTON     PTSUNNY   65  58  78 NW9       30.07F
FAIRFIELD *    PTSUNNY   63  55  77 N13G21    30.10R
FORT MADISON * CLOUDY    66  57  72 N7        30.08S
KEOKUK *       CLOUDY    63  59  88 N5        30.07S
OSKALOOSA *    CLOUDY    61  54  77 N12       30.13R
CENTERVILLE *  CLOUDY    59  57  94 NW12G20   30.14R
OTTUMWA        CLOUDY    62  53  72 N15       30.12R
WASHINGTON *   PTSUNNY   64  57  77 N15       30.10R
$$

ABBREVIATIONS USED IN REMARKS
   TC - TEMPERATURES IN CELSIUS
  WCI - WIND CHILL INDEX
   HX - HEAT INDEX
  VSB - VISIBILITY
$$




USA.gov is the U.S. government's official web portal to all federal, state and local government web resources and services.